Terminal Aerodrome Forecast
Issued by NWS Dodge City, KS

Home | Current Version | Previous Version | Graphics & Text | Print | Product List | Glossary Off
Versions: 1 2 3 4 5 6 7 8 9 10 11 12 13 14 15 16 17 18 19 20 21 22 23 24 25 26 27 28 29 30 31 32 33 34 35 36 37 38 39 40 41 42 43 44 45 46 47 48 49 50

000
FTUS43 KDDC 231433 AAI
TAFDDC
TAF AMD
KDDC 231433Z 2315/2412 36026G35KT P6SM BKN050
      TEMPO 2318/2322 5SM -RA OVC015
     FM232200 33025G35KT P6SM SCT060 BKN150
     FM240200 31015G23KT P6SM SKC=

USA.gov is the U.S. government's official web portal to all federal, state and local government web resources and services.